DLH4243 OPKC-OMDB

Flight info

Callsign DLH4243
Flight time N/A
Altitude 40000
Route MELOM A454 PASOV B540 MIVEK P574 IMPED
Aircraft A333/H-SDE3GHIJ2J3J5M1RVWXY/LB2D1

Departure

Time 2026-05-07 10:30
Airport Jinnah International Airport (OPKC)

Arrival

Time N/A
Airport Dubai International Airport (OMDB)
Time Latitude Longitude Altitude Speed Heading
2026-05-07 09:58 24.90281 67.17017 93 ft 0 kts 244°
2026-05-07 10:23 24.90283 67.17024 93 ft 3 kts 244°
2026-05-07 10:23 24.90290 67.17039 93 ft 2 kts 244°
2026-05-07 10:24 24.90297 67.17054 93 ft 2 kts 244°
2026-05-07 10:24 24.90303 67.17069 93 ft 2 kts 244°
2026-05-07 10:24 24.90308 67.17085 93 ft 2 kts 276°
2026-05-07 10:24 24.90303 67.17100 93 ft 2 kts 314°
2026-05-07 10:25 24.90293 67.17109 93 ft 0 kts 344°
2026-05-07 10:25 24.90288 67.17110 93 ft 0 kts 345°
2026-05-07 10:26 24.90299 67.17107 93 ft 6 kts 345°
2026-05-07 10:27 24.90380 67.17082 93 ft 15 kts 344°
2026-05-07 10:27 24.90504 67.17048 94 ft 20 kts
2026-05-07 10:27 24.90598 67.17169 96 ft 24 kts 74°
2026-05-07 10:27 24.90650 67.17367 99 ft 28 kts 66°
2026-05-07 10:28 24.90743 67.17467 100 ft 0 kts 27°
2026-05-07 10:28 24.90760 67.17477 101 ft 6 kts 27°
2026-05-07 10:28 24.90813 67.17490 102 ft 9 kts 350°
2026-05-07 10:28 24.90854 67.17427 102 ft 13 kts 272°
2026-05-07 10:29 24.90832 67.17306 102 ft 24 kts 255°
2026-05-07 10:29 24.90715 67.16855 93 ft 99 kts 254°
2026-05-07 10:29 24.90473 67.15886 123 ft 155 kts 256°
2026-05-07 10:30 24.89888 67.13384 1217 ft 178 kts 256°
2026-05-07 10:30 24.89319 67.12250 2005 ft 177 kts 229°
2026-05-07 10:30 24.88199 67.11469 2249 ft 207 kts 198°
2026-05-07 10:30 24.86719 67.11310 2907 ft 217 kts 190°
2026-05-07 10:31 24.85228 67.11115 3767 ft 214 kts 192°
2026-05-07 10:31 24.83735 67.10835 4445 ft 220 kts 195°
2026-05-07 10:31 24.82254 67.10347 5011 ft 226 kts 215°
2026-05-07 10:31 24.81087 67.09156 5492 ft 236 kts 230°
2026-05-07 10:32 24.80239 67.08232 5790 ft 250 kts 225°
2026-05-07 10:32 24.78917 67.06914 6197 ft 269 kts 224°
2026-05-07 10:32 24.77952 67.05975 6469 ft 281 kts 224°